User: anonymous
Location: Unspecified
(0.0000°N, 0.0000°E)
Time: 05:00:52
(UTC+00:00)
Language:

SES 6 - Orbit

View from above orbital plane
View from above orbital plane
View from above satellite
View from above satellite

Ground track
Ground track

The orbit data is extracted from the following two-line orbital elements,

1 39172U 13026A   14210.38761527 -.00000271  00000-0  00000+0 0  2882
2 39172 000.0198 001.0759 0001461 118.3306 286.5539 01.00268457  4227
Epoch (UTC): 29 July 2014 09:18:09
Eccentricity: 0.0001461
inclination: 0.0198°
perigee height: 35781 km
apogee height: 35793 km
right ascension of ascending node: 1.0759°
argument of perigee: 118.3306°
revolutions per day: 1.00268457
mean anomaly at epoch: 286.5539°
orbit number at epoch: 422

The dashed part of the orbit path shows where the satellite is in the earth's shadow,  

DLR